Weather History for Jacksonville, NC

Change the Weather History Date:

Saturday, June 7, 2014

  Actual Average Record
Temperature  
Mean Temperature 72 °F -  
Max Temperature 82 °F 82 °F 98 °F (2008)
Min Temperature 62 °F 61 °F -32 °F (1997)
Cooling Degree Days 7    
Growing Degree Days 22 (Base 50)    
Moisture  
Dew Point 60 °F    
Average Humidity 67    
Maximum Humidity 94    
Minimum Humidity 42    
Precipitation  
Precipitation 0.00 in - - ()
Sea Level Pressure  
Sea Level Pressure 29.98 in    
Wind  
Wind Speed 5 mph (NNE)    
Max Wind Speed 13 mph    
Max Gust Speed 20 mph    
Visibility 10 miles    
Events      
Averages and records for this station are not official NWS values.
T = Trace of Precipitation, MM = Missing Value Source: NWS Daily Summary

Daily Weather History Graph

Daily Weather History Graph

Search for Another Location

Airport:

Trip Planner

Search our weather history database for the weather conditions in past years. The results will help you decide how hot, cold, wet, or windy it might be!

Date:

Astronomy

Jun. 07, 2014 Rise Set
Actual Time 5:56 AM EDT 8:22 PM EDT
Civil Twilight 5:27 AM EDT 8:51 PM EDT
Nautical Twilight 4:51 AM EDT 9:27 PM EDT
Astronomical Twilight 4:11 AM EDT 10:07 PM EDT
Moon 2:50 PM EDT (6/7) 2:03 AM EDT (6/7)
Length of Visible Light 15h 24m
Length of Day
14h 25m
Waxing Gibbous, 67% of the Moon is Illuminated
Jun 7
Waxing Gibbous
Jun 13
Full
Jun 19
Last Quarter
Jun 27
New
Jul 5
First Quarter

Hourly Weather History & Observations

Time (EDT) Temp. Heat Index Dew Point Humidity Pressure Visibility Wind Dir Wind Speed Gust Speed Precip Events Conditions
12:15 AM 66.2 °F - 62.6 °F 88% 29.97 in 10.0 mi Calm Calm - N/A   Mostly Cloudy
12:35 AM 66.2 °F - 64.4 °F 94% 29.98 in 10.0 mi Calm Calm - N/A   Overcast
12:55 AM 66.2 °F - 64.4 °F 94% 29.97 in 10.0 mi Calm Calm - N/A   Mostly Cloudy
1:15 AM 66.2 °F - 64.4 °F 94% 29.97 in 10.0 mi Calm Calm - N/A   Clear
1:35 AM 66.2 °F - 62.6 °F 88% 29.96 in 10.0 mi Calm Calm - N/A   Clear
1:55 AM 66.2 °F - 62.6 °F 88% 29.95 in 9.0 mi North 5.8 mph - N/A   Clear
2:15 AM 66.2 °F - 62.6 °F 88% 29.95 in 10.0 mi Calm Calm - N/A   Clear
2:35 AM 66.2 °F - 62.6 °F 88% 29.94 in 10.0 mi NW 3.5 mph - N/A   Partly Cloudy
2:55 AM 66.2 °F - 62.6 °F 88% 29.95 in 10.0 mi Calm Calm - N/A   Clear
3:15 AM 66.2 °F - 62.6 °F 88% 29.95 in 10.0 mi NNE 4.6 mph - N/A   Clear
3:35 AM 66.2 °F - 62.6 °F 88% 29.95 in 10.0 mi NNW 3.5 mph - N/A   Clear
3:55 AM 64.4 °F - 62.6 °F 94% 29.95 in 8.0 mi NE 4.6 mph - N/A   Clear
4:15 AM 64.4 °F - 62.6 °F 94% 29.95 in 10.0 mi NNE 5.8 mph - N/A   Clear
4:35 AM 64.4 °F - 62.6 °F 94% 29.95 in 10.0 mi NNE 5.8 mph - N/A   Clear
4:55 AM 64.4 °F - 62.6 °F 94% 29.94 in 10.0 mi North 4.6 mph - N/A   Clear
5:15 AM 64.4 °F - 60.8 °F 88% 29.94 in 8.0 mi NNE 6.9 mph - N/A   Clear
5:35 AM 64.4 °F - 60.8 °F 88% 29.94 in 7.0 mi NNE 6.9 mph - N/A   Clear
5:55 AM 64.4 °F - 60.8 °F 88% 29.95 in 7.0 mi NNE 8.1 mph - N/A   Clear
6:15 AM 64.4 °F - 60.8 °F 88% 29.95 in 7.0 mi NNE 6.9 mph - N/A   Clear
6:35 AM 64.4 °F - 60.8 °F 88% 29.97 in 7.0 mi NNE 5.8 mph - N/A   Clear
6:55 AM 66.2 °F - 62.6 °F 88% 29.97 in 10.0 mi NNE 6.9 mph - N/A   Clear
7:15 AM 68.0 °F - 62.6 °F 83% 29.98 in 10.0 mi NNE 6.9 mph - N/A   Clear
7:35 AM 69.8 °F - 64.4 °F 83% 29.99 in 10.0 mi North 6.9 mph - N/A   Clear
8:15 AM 71.6 °F - 64.4 °F 78% 30.01 in 10.0 mi NNE 6.9 mph - N/A   Clear
9:15 AM 75.2 °F - 62.6 °F 65% 30.02 in 10.0 mi NNE 5.8 mph - N/A   Clear
9:35 AM 77.0 °F - 60.8 °F 57% 30.02 in 10.0 mi ENE 8.1 mph - N/A   Clear
9:55 AM 77.0 °F - 62.6 °F 61% 30.01 in 10.0 mi ENE 5.8 mph - N/A   Clear
10:15 AM 78.8 °F - 60.8 °F 54% 30.01 in 10.0 mi NE 6.9 mph - N/A   Clear
10:35 AM 78.8 °F - 57.2 °F 47% 30.01 in 10.0 mi ENE 9.2 mph - N/A   Clear
10:55 AM 78.8 °F - 59.0 °F 51% 30.02 in 10.0 mi North 9.2 mph - N/A   Clear
11:15 AM 78.8 °F - 57.2 °F 47% 30.02 in 10.0 mi NE 9.2 mph - N/A   Clear
11:35 AM 80.6 °F 80.8 °F 57.2 °F 45% 30.01 in 10.0 mi NE 10.4 mph - N/A   Clear
11:55 AM 80.6 °F 80.8 °F 57.2 °F 45% 30.01 in 10.0 mi North 8.1 mph - N/A   Clear
12:15 PM 80.6 °F 81.1 °F 59.0 °F 48% 30.01 in 10.0 mi NE 11.5 mph - N/A   Clear
12:35 PM 80.6 °F 81.1 °F 59.0 °F 48% 30.01 in 10.0 mi North 10.4 mph - N/A   Scattered Clouds
12:55 PM 82.4 °F 82.5 °F 59.0 °F 45% 30.01 in 10.0 mi NNE 9.2 mph 16.1 mph N/A   Partly Cloudy
1:15 PM 82.4 °F 82.0 °F 57.2 °F 42% 30.00 in 10.0 mi ENE 8.1 mph 17.3 mph N/A   Clear
1:35 PM 82.4 °F 82.0 °F 57.2 °F 42% 30.00 in 10.0 mi NNE 12.7 mph 19.6 mph N/A   Partly Cloudy
1:55 PM 82.4 °F 82.0 °F 57.2 °F 42% 29.99 in 10.0 mi NNW 6.9 mph - N/A   Clear
2:15 PM 82.4 °F 82.0 °F 57.2 °F 42% 29.99 in 10.0 mi North 8.1 mph - N/A   Partly Cloudy
2:35 PM 82.4 °F 82.0 °F 57.2 °F 42% 29.99 in 10.0 mi WNW 4.6 mph - N/A   Scattered Clouds
2:55 PM 82.4 °F 82.5 °F 59.0 °F 45% 29.97 in 10.0 mi NNW 11.5 mph - N/A   Mostly Cloudy
3:15 PM 82.4 °F 82.0 °F 57.2 °F 42% 29.97 in 10.0 mi NNE 10.4 mph - N/A   Scattered Clouds
3:35 PM 82.4 °F 82.0 °F 57.2 °F 42% 29.97 in 10.0 mi NNE 10.4 mph - N/A   Partly Cloudy
3:55 PM 82.4 °F 82.0 °F 57.2 °F 42% 29.97 in 10.0 mi North 8.1 mph - N/A   Partly Cloudy
4:15 PM 82.4 °F 82.0 °F 57.2 °F 42% 29.96 in 10.0 mi NNW 8.1 mph - N/A   Unknown
4:35 PM 82.4 °F 82.0 °F 57.2 °F 42% 29.96 in 10.0 mi North 10.4 mph - N/A   Unknown
4:55 PM 82.4 °F 82.0 °F 57.2 °F 42% 29.96 in 10.0 mi NNE 8.1 mph 17.3 mph N/A   Clear
5:15 PM 82.4 °F 82.0 °F 57.2 °F 42% 29.96 in 10.0 mi NNE 9.2 mph - N/A   Unknown
5:35 PM 82.4 °F 82.0 °F 57.2 °F 42% 29.97 in 10.0 mi NNE 11.5 mph - N/A   Unknown
5:55 PM 82.4 °F 82.0 °F 57.2 °F 42% 29.97 in 10.0 mi NE 9.2 mph - N/A   Clear
6:15 PM 82.4 °F 82.0 °F 57.2 °F 42% 29.97 in 10.0 mi North 9.2 mph - N/A   Clear
6:35 PM 80.6 °F 80.5 °F 55.4 °F 42% 29.97 in 10.0 mi North 3.5 mph - N/A   Clear
6:55 PM 80.6 °F 80.8 °F 57.2 °F 45% 29.97 in 10.0 mi ENE 8.1 mph - N/A   Clear
7:15 PM 80.6 °F 80.8 °F 57.2 °F 45% 29.97 in 10.0 mi ENE 6.9 mph - N/A   Clear
7:35 PM 78.8 °F - 60.8 °F 54% 29.98 in 10.0 mi SSE 8.1 mph - N/A   Clear
7:55 PM 75.2 °F - 60.8 °F 61% 29.98 in 10.0 mi SSE 5.8 mph - N/A   Clear
8:15 PM 73.4 °F - 60.8 °F 65% 29.98 in 10.0 mi SSE 5.8 mph - N/A   Clear
8:35 PM 71.6 °F - 62.6 °F 73% 29.98 in 10.0 mi South 4.6 mph - N/A   Clear
8:55 PM 71.6 °F - 60.8 °F 69% 29.99 in 10.0 mi South 5.8 mph - N/A   Clear
9:15 PM 69.8 °F - 60.8 °F 73% 30.00 in 10.0 mi South 4.6 mph - N/A   Clear
9:35 PM 69.8 °F - 60.8 °F 73% 30.01 in 10.0 mi Calm Calm - N/A   Clear
9:55 PM 69.8 °F - 60.8 °F 73% 30.01 in 10.0 mi Calm Calm - N/A   Clear
10:15 PM 68.0 °F - 60.8 °F 78% 30.02 in 10.0 mi Calm Calm - N/A   Clear
10:35 PM 66.2 °F - 60.8 °F 83% 30.02 in 10.0 mi Calm Calm - N/A   Clear
10:55 PM 64.4 °F - 60.8 °F 88% 30.02 in 10.0 mi Calm Calm - N/A   Clear
11:15 PM 64.4 °F - 60.8 °F 88% 30.02 in 10.0 mi Calm Calm - N/A   Clear
11:35 PM 62.6 °F - 59.0 °F 88% 30.02 in 10.0 mi Calm Calm - N/A   Clear
11:55 PM 62.6 °F - 59.0 °F 88% 30.01 in 10.0 mi Calm Calm - N/A   Clear